Weather History for Pecos, TX

Change the Weather History Date:

Wednesday, April 16, 2014

  Actual Average Record
Temperature  
Mean Temperature 65 °F -  
Max Temperature 90 °F 86 °F 103 °F (1948)
Min Temperature 41 °F 45 °F 33 °F (1961)
Growing Degree Days 15 (Base 50)    
Moisture  
Dew Point 20 °F    
Average Humidity 21    
Maximum Humidity 33    
Minimum Humidity 9    
Precipitation  
Precipitation 0.00 in - - ()
Sea Level Pressure  
Sea Level Pressure 29.81 in    
Wind  
Wind Speed 8 mph (East)    
Max Wind Speed 21 mph    
Max Gust Speed 33 mph    
Visibility 10 miles    
Events      
Averages and records for this station are not official NWS values.
T = Trace of Precipitation, MM = Missing Value Source: NWS Daily Summary

Daily Weather History Graph

Daily Weather History Graph

Search for Another Location

Airport:

Trip Planner

Search our weather history database for the weather conditions in past years. The results will help you decide how hot, cold, wet, or windy it might be!

Date:

Astronomy

Apr. 16, 2014 Rise Set
Actual Time 7:24 AM CDT 8:23 PM CDT
Civil Twilight 6:59 AM CDT 8:48 PM CDT
Nautical Twilight 6:30 AM CDT 9:18 PM CDT
Astronomical Twilight 5:59 AM CDT 9:48 PM CDT
Moon 10:03 PM CDT (4/16) 8:17 AM CDT (4/16)
Length of Visible Light 13h 48m
Length of Day
12h 58m
Full, 98% of the Moon is Illuminated
Apr 16
Full
Apr 22
Last Quarter
Apr 29
New
May 6
First Quarter
May 14
Full

Hourly Weather History & Observations

Time (CDT) Temp. Windchill Dew Point Humidity Pressure Visibility Wind Dir Wind Speed Gust Speed Precip Events Conditions
12:15 AM 54.5 °F - 13.1 °F 19% 29.94 in 10.0 mi ESE 11.5 mph - N/A   Clear
12:35 AM 54.5 °F - 12.7 °F 19% 29.95 in 10.0 mi ESE 9.2 mph - N/A   Clear
12:55 AM 54.5 °F - 12.2 °F 19% 29.94 in 10.0 mi ESE 9.2 mph - N/A   Clear
1:15 AM 53.1 °F - 12.0 °F 20% 29.94 in 10.0 mi East 6.9 mph - N/A   Clear
1:35 AM 51.3 °F - 12.0 °F 21% 29.93 in 10.0 mi ESE 6.9 mph - N/A   Clear
1:55 AM 49.6 °F - 11.8 °F 22% 29.92 in 10.0 mi ESE 4.6 mph - N/A   Clear
2:15 AM 49.1 °F - 12.2 °F 23% 29.92 in 10.0 mi East 3.5 mph - N/A   Clear
2:35 AM 48.4 °F - 12.2 °F 23% 29.91 in 10.0 mi East 5.8 mph - N/A   Clear
2:55 AM 46.6 °F - 12.0 °F 25% 29.90 in 10.0 mi East 5.8 mph - N/A   Clear
3:15 AM 44.8 °F 41.6 °F 11.8 °F 26% 29.89 in 10.0 mi ESE 5.8 mph - N/A   Clear
3:35 AM 44.6 °F 39.7 °F 12.6 °F 27% 29.88 in 10.0 mi East 9.2 mph - N/A   Clear
3:55 AM 44.2 °F 41.0 °F 12.7 °F 28% 29.88 in 10.0 mi ENE 5.8 mph - N/A   Clear
4:15 AM 43.0 °F 38.2 °F 12.7 °F 29% 29.88 in 10.0 mi ENE 8.1 mph - N/A   Clear
4:35 AM 43.7 °F 39.7 °F 13.6 °F 30% 29.87 in 10.0 mi ENE 6.9 mph - N/A   Clear
4:55 AM 43.0 °F 38.2 °F 13.3 °F 30% 29.86 in 10.0 mi ENE 8.1 mph - N/A   Clear
5:15 AM 41.9 °F 37.5 °F 13.1 °F 31% 29.86 in 10.0 mi ENE 6.9 mph - N/A   Clear
5:35 AM 41.0 °F 35.8 °F 13.1 °F 32% 29.86 in 10.0 mi NE 8.1 mph - N/A   Clear
5:55 AM 42.8 °F 38.0 °F 14.0 °F 31% 29.86 in 10.0 mi NE 8.1 mph - N/A   Clear
6:15 AM 42.6 °F 37.2 °F 13.8 °F 31% 29.85 in 10.0 mi NE 9.2 mph - N/A   Clear
6:35 AM 42.4 °F 37.5 °F 14.0 °F 32% 29.86 in 10.0 mi ENE 8.1 mph - N/A   Clear
6:55 AM 41.2 °F 36.6 °F 13.6 °F 33% 29.86 in 10.0 mi NE 6.9 mph - N/A   Clear
7:15 AM 41.4 °F 36.2 °F 14.0 °F 33% 29.86 in 10.0 mi NE 8.1 mph - N/A   Clear
7:35 AM 41.5 °F 36.4 °F 14.0 °F 33% 29.86 in 10.0 mi ENE 8.1 mph - N/A   Clear
7:55 AM 42.1 °F 37.7 °F 14.0 °F 32% 29.88 in 10.0 mi NE 6.9 mph - N/A   Clear
8:15 AM 43.7 °F 40.3 °F 14.9 °F 31% 29.88 in 10.0 mi ENE 5.8 mph - N/A   Clear
8:35 AM 46.8 °F - 15.8 °F 29% 29.88 in 10.0 mi ENE 3.5 mph - N/A   Clear
8:55 AM 49.6 °F - 16.3 °F 27% 29.88 in 10.0 mi ENE 5.8 mph - N/A   Clear
9:15 AM 51.4 °F - 16.5 °F 25% 29.89 in 10.0 mi ENE 4.6 mph - N/A   Clear
9:35 AM 52.9 °F - 16.5 °F 24% 29.89 in 10.0 mi NE 3.5 mph - N/A   Clear
9:55 AM 54.3 °F - 16.7 °F 23% 29.88 in 10.0 mi East 4.6 mph - N/A   Clear
10:15 AM 56.5 °F - 16.7 °F 21% 29.88 in 10.0 mi East 3.5 mph - N/A   Clear
10:35 AM 59.4 °F - 17.6 °F 20% 29.88 in 10.0 mi East 3.5 mph - N/A   Clear
10:55 AM 61.7 °F - 17.8 °F 18% 29.88 in 10.0 mi East 5.8 mph - N/A   Clear
11:15 AM 64.4 °F - 18.5 °F 17% 29.88 in 10.0 mi East 4.6 mph - N/A   Clear
11:35 AM 67.3 °F - 19.4 °F 16% 29.88 in 10.0 mi Calm Calm - N/A   Clear
11:55 AM 70.0 °F - 20.3 °F 15% 29.86 in 10.0 mi ESE 5.8 mph - N/A   Clear
12:15 PM 72.1 °F - 21.2 °F 15% 29.86 in 10.0 mi East 3.5 mph - N/A   Clear
12:35 PM 74.8 °F - 22.6 °F 14% 29.84 in 10.0 mi East 4.6 mph - N/A   Clear
12:55 PM 77.9 °F - 23.9 °F 14% 29.83 in 10.0 mi ESE 6.9 mph - N/A   Clear
1:15 PM 80.1 °F - 24.8 °F 13% 29.82 in 10.0 mi East 3.5 mph - N/A   Clear
1:35 PM 81.3 °F - 25.0 °F 13% 29.81 in 10.0 mi SE 4.6 mph - N/A   Clear
1:55 PM 82.0 °F - 24.8 °F 12% 29.79 in 10.0 mi South 4.6 mph - N/A   Clear
2:15 PM 82.8 °F - 25.0 °F 12% 29.79 in 10.0 mi NNW 4.6 mph - N/A   Clear
2:35 PM 84.4 °F - 25.5 °F 12% 29.77 in 10.0 mi ENE 5.8 mph - N/A   Clear
2:55 PM 86.5 °F - 26.1 °F 11% 29.76 in 10.0 mi East 5.8 mph - N/A   Clear
3:15 PM 87.3 °F - 25.9 °F 11% 29.75 in 10.0 mi SSW 6.9 mph - N/A   Clear
3:35 PM 88.5 °F - 26.2 °F 11% 29.74 in 10.0 mi Calm Calm - N/A   Clear
3:55 PM 88.3 °F - 25.7 °F 10% 29.72 in 10.0 mi NNE 6.9 mph - N/A   Clear
4:15 PM 88.2 °F - 25.3 °F 10% 29.71 in 10.0 mi SW 6.9 mph - N/A   Clear
4:35 PM 89.2 °F - 25.0 °F 10% 29.70 in 10.0 mi SSE 10.4 mph - N/A   Clear
4:55 PM 89.1 °F - 23.0 °F 9% 29.69 in 10.0 mi South 5.8 mph - N/A   Clear
5:15 PM 89.6 °F - 22.6 °F 9% 29.69 in 10.0 mi SW 8.1 mph - N/A   Clear
5:35 PM 89.6 °F - 22.5 °F 9% 29.68 in 10.0 mi West 10.4 mph - N/A   Clear
5:55 PM 89.2 °F - 25.5 °F 10% 29.69 in 10.0 mi East 6.9 mph - N/A   Clear
6:15 PM 86.7 °F - 27.5 °F 12% 29.68 in 10.0 mi East 20.7 mph 33.4 mph N/A   Clear
6:35 PM 85.5 °F - 27.0 °F 12% 29.68 in 10.0 mi East 20.7 mph 24.2 mph N/A   Clear
6:55 PM 84.4 °F - 27.1 °F 12% 29.68 in 10.0 mi East 18.4 mph 26.5 mph N/A   Clear
7:15 PM 83.8 °F - 26.6 °F 12% 29.68 in 10.0 mi ESE 19.6 mph - N/A   Clear
7:35 PM 81.9 °F - 26.8 °F 13% 29.67 in 10.0 mi ESE 19.6 mph 23.0 mph N/A   Clear
7:55 PM 79.9 °F - 26.6 °F 14% 29.67 in 10.0 mi East 19.6 mph - N/A   Clear
8:15 PM 77.5 °F - 26.4 °F 15% 29.68 in 10.0 mi East 17.3 mph - N/A   Clear
8:35 PM 74.8 °F - 26.2 °F 16% 29.68 in 10.0 mi East 16.1 mph - N/A   Clear
8:55 PM 72.9 °F - 26.4 °F 18% 29.69 in 10.0 mi East 16.1 mph 24.2 mph N/A   Clear
9:15 PM 71.6 °F - 26.6 °F 19% 29.69 in 10.0 mi East 17.3 mph - N/A   Clear
9:35 PM 70.2 °F - 27.5 °F 20% 29.70 in 10.0 mi East 13.8 mph - N/A   Clear
9:55 PM 68.9 °F - 28.4 °F 22% 29.71 in 10.0 mi ESE 11.5 mph - N/A   Clear
10:15 PM 68.0 °F - 29.1 °F 23% 29.72 in 10.0 mi East 12.7 mph - N/A   Clear
10:35 PM 66.0 °F - 30.2 °F 26% 29.74 in 10.0 mi East 13.8 mph - N/A   Clear
10:55 PM 64.6 °F - 30.9 °F 28% 29.75 in 10.0 mi East 11.5 mph - N/A   Clear
11:15 PM 63.3 °F - 31.6 °F 31% 29.75 in 10.0 mi East 10.4 mph - N/A   Clear
11:35 PM 62.1 °F - 31.8 °F 32% 29.76 in 10.0 mi East 10.4 mph - N/A   Clear
11:55 PM 61.5 °F - 32.0 °F 33% 29.76 in 10.0 mi East 9.2 mph - N/A   Clear